Date String (YYYY-MM-DD hh:mm:ss) UTC,Instrument flags,Ambient pressure (hPa),Sample flow (lpm),Bypass flow (lpm),Sample temperature (°C),Ambient temperature (°C),ASC tube jacket temperature (°C),LED temperature (°C),Box temperature (°C),Sample RH (%),Span deviation,Mass concentration (μg/m³),Mass concentration (μg/m³),Mass concentration (μg/m³)
DateTimeUTC,F1_M11,P_M11,Q1_M11,Q2_M11,T1_M11,T2_M11,T3_M11,T4_M11,T5_M11,U1_M11,ZSPAN_M11,X0_M11,X2_M11,X1_M11
2022-01-28 13:00:00,,0834.7,5.01,0.00,22.2,21.6,00.0,31.2,23.8,04.9,0000.0,0004.51,0001.45,0001.03
2022-01-28 13:01:00,,0834.8,5.00,0.00,22.1,21.4,00.0,31.2,23.7,04.9,0000.0,0004.47,0001.42,0001.02
2022-01-28 13:02:00,,0834.8,4.99,0.00,22.1,21.3,00.0,31.2,23.7,04.9,0000.0,0004.25,0001.40,0001.01
2022-01-28 13:03:00,,0834.8,5.00,0.00,22.0,21.2,00.0,31.2,23.6,04.9,0000.0,0004.21,0001.38,0001.01
2022-01-28 13:04:00,,0834.8,5.01,0.00,22.0,21.4,00.0,31.2,23.6,04.9,0000.0,0003.95,0001.40,0001.01
2022-01-28 13:05:00,,0834.7,5.00,0.00,22.1,22.1,00.0,31.2,23.9,04.9,0000.0,0003.18,0001.44,0001.01
2022-01-28 13:06:00,,0834.7,5.01,0.00,22.3,22.9,00.0,31.2,24.1,04.8,0000.0,0002.79,0001.43,0001.02
2022-01-28 13:07:00,,0834.7,5.01,0.00,22.4,23.0,00.0,31.2,24.2,04.8,0000.0,0002.76,0001.43,0001.01
2022-01-28 13:08:00,,0834.8,4.98,0.00,22.4,22.7,00.0,31.2,24.2,04.8,0000.0,0002.55,0001.38,0001.00
2022-01-28 13:09:00,,0834.8,5.00,0.00,22.4,22.5,00.0,31.3,24.2,04.8,0000.0,0002.34,0001.34,0001.00
2022-01-28 13:10:00,,0834.8,4.99,0.00,22.3,22.3,00.0,31.3,24.1,04.8,0000.0,0002.16,0001.31,0001.00
2022-01-28 13:11:00,,0834.9,5.01,0.00,22.3,22.0,00.0,31.2,24.0,04.8,0000.0,0002.06,0001.28,0000.99
2022-01-28 13:12:00,,0834.9,5.00,0.00,22.3,21.8,00.0,31.2,23.9,04.9,0000.0,0002.01,0001.28,0001.00
2022-01-28 13:13:00,,0834.9,5.01,0.00,22.2,21.7,00.0,31.2,23.8,04.9,0000.0,0001.85,0001.27,0001.00
2022-01-28 13:14:00,,0835.0,4.98,0.00,22.2,21.5,00.0,31.2,23.8,04.9,0000.0,0001.88,0001.29,0001.01
2022-01-28 13:15:00,,0835.0,5.01,0.00,22.1,21.4,00.0,31.2,23.7,04.9,0000.0,0001.81,0001.27,0001.01
2022-01-28 13:16:00,,0835.0,5.00,0.00,22.1,21.3,00.0,31.1,23.6,04.9,0000.0,0001.75,0001.25,0001.01
2022-01-28 13:17:00,,0835.0,5.01,0.00,22.0,21.3,00.0,31.1,23.6,04.9,0000.0,0001.78,0001.25,0001.01
2022-01-28 13:18:00,,0835.1,5.00,0.00,22.1,22.0,00.0,31.1,23.8,04.9,0000.0,0001.82,0001.25,0001.00
2022-01-28 13:19:00,,0835.0,5.01,0.00,22.2,22.7,00.0,31.2,24.1,04.9,0000.0,0002.40,0001.23,0001.00
2022-01-28 13:20:00,,0835.1,4.99,0.00,22.3,23.0,00.0,31.2,24.2,04.8,0000.0,0002.50,0001.25,0000.99
2022-01-28 13:21:00,,0835.0,5.00,0.00,22.4,22.8,00.0,31.2,24.2,04.8,0000.0,0002.62,0001.26,0000.98
2022-01-28 13:22:00,,0835.1,5.00,0.00,22.3,22.5,00.0,31.2,24.1,04.8,0000.0,0002.89,0001.24,0000.98
2022-01-28 13:23:00,,0835.1,4.99,0.00,22.3,22.2,00.0,31.2,24.0,04.8,0000.0,0002.90,0001.25,0000.98
2022-01-28 13:24:00,,0835.1,4.99,0.00,22.3,22.0,00.0,31.2,24.0,04.8,0000.0,0002.95,0001.25,0000.96
2022-01-28 13:25:00,,0835.1,5.01,0.00,22.2,21.8,00.0,31.2,23.9,04.9,0000.0,0003.01,0001.25,0000.95
2022-01-28 13:26:00,,0835.1,5.01,0.00,22.2,21.7,00.0,31.2,23.8,04.9,0000.0,0002.96,0001.22,0000.92
2022-01-28 13:27:00,,0835.1,5.00,0.00,22.1,21.5,00.0,31.2,23.8,04.8,0000.0,0002.97,0001.22,0000.91
2022-01-28 13:28:00,,0835.1,5.00,0.00,22.1,21.4,00.0,31.2,23.7,04.8,0000.0,0002.88,0001.18,0000.89
2022-01-28 13:29:00,,0835.1,5.00,0.00,22.0,21.3,00.0,31.2,23.6,04.8,0000.0,0003.21,0001.15,0000.88
2022-01-28 13:30:00,,0835.1,5.00,0.00,22.0,21.2,00.0,31.1,23.6,04.8,0000.0,0002.79,0001.10,0000.86
2022-01-28 13:31:00,,0835.1,4.99,0.00,22.0,21.6,00.0,31.1,23.7,04.8,0000.0,0002.73,0001.08,0000.85
2022-01-28 13:32:00,,0835.1,5.00,0.00,22.1,22.3,00.0,31.2,23.9,04.8,0000.0,0002.67,0001.06,0000.84
2022-01-28 13:33:00,,0835.1,5.01,0.00,22.3,23.1,00.0,31.2,24.2,04.7,0000.0,0002.48,0001.05,0000.83
2022-01-28 13:34:00,,0835.1,5.00,0.00,22.4,23.3,00.0,31.2,24.3,04.5,0000.0,0002.49,0001.04,0000.81
2022-01-28 13:35:00,,0835.0,5.01,0.00,22.4,22.9,00.0,31.2,24.3,04.5,0000.0,0002.43,0001.01,0000.80
2022-01-28 13:36:00,,0835.1,5.00,0.00,22.4,22.6,00.0,31.2,24.1,04.5,0000.0,0002.30,0000.96,0000.79
2022-01-28 13:37:00,,0835.0,4.99,0.00,22.3,22.2,00.0,31.2,24.0,04.5,0000.0,0002.27,0000.96,0000.79
2022-01-28 13:38:00,,0835.0,5.00,0.00,22.2,22.0,00.0,31.2,23.9,04.5,0000.0,0002.23,0000.95,0000.79
2022-01-28 13:39:00,,0835.1,4.99,0.00,22.2,21.7,00.0,31.2,23.7,04.5,0000.0,0002.31,0000.99,0000.80
2022-01-28 13:40:00,,0835.1,5.00,0.00,22.1,21.5,00.0,31.2,23.6,04.6,0000.0,0002.20,0001.02,0000.80
2022-01-28 13:41:00,,0835.1,5.01,0.00,22.0,21.3,00.0,31.2,23.6,04.6,0000.0,0001.64,0001.04,0000.82
2022-01-28 13:42:00,,0835.0,4.99,0.00,22.0,21.2,00.0,31.1,23.5,04.6,0000.0,0002.64,0001.04,0000.82
2022-01-28 13:43:00,,0835.1,5.02,0.00,21.9,21.1,00.0,31.1,23.4,04.5,0000.0,0002.68,0001.04,0000.82
2022-01-28 13:44:00,,0835.1,5.00,0.00,21.9,21.2,00.0,31.1,23.4,04.5,0000.0,0002.49,0001.02,0000.81
2022-01-28 13:45:00,,0835.2,5.01,0.00,22.0,22.0,00.0,31.1,23.7,04.5,0000.0,0002.44,0001.02,0000.82
2022-01-28 13:46:00,,0835.2,4.99,0.00,22.1,22.8,00.0,31.2,24.0,04.5,0000.0,0002.47,0001.04,0000.83
2022-01-28 13:47:00,,0835.2,5.00,0.00,22.3,23.2,00.0,31.2,24.2,04.6,0000.0,0002.61,0001.10,0000.86
2022-01-28 13:48:00,,0835.1,5.00,0.00,22.4,23.0,00.0,31.2,24.2,04.7,0000.0,0002.60,0001.11,0000.88
2022-01-28 13:49:00,,0835.2,5.00,0.00,22.3,22.6,00.0,31.2,24.1,04.7,0000.0,0002.62,0001.11,0000.89
2022-01-28 13:50:00,,0835.2,4.99,0.00,22.3,22.3,00.0,31.2,24.0,04.7,0000.0,0002.68,0001.08,0000.89
2022-01-28 13:51:00,,0835.2,4.98,0.00,22.2,22.0,00.0,31.2,23.9,04.8,0000.0,0002.67,0001.07,0000.90
2022-01-28 13:52:00,,0835.2,5.00,0.00,22.2,21.8,00.0,31.2,23.8,04.8,0000.0,0002.75,0001.09,0000.91
2022-01-28 13:53:00,,0835.2,5.01,0.00,22.1,21.5,00.0,31.2,23.7,04.8,0000.0,0002.05,0001.12,0000.92
2022-01-28 13:54:00,,0835.2,5.00,0.00,22.0,21.4,00.0,31.1,23.6,04.8,0000.0,0002.37,0001.15,0000.95
2022-01-28 13:55:00,,0835.2,5.00,0.00,22.0,21.3,00.0,31.1,23.5,04.8,0000.0,0002.48,0001.19,0000.98
2022-01-28 13:56:00,,0835.2,4.99,0.00,21.9,21.2,00.0,31.1,23.4,04.9,0000.0,0002.54,0001.23,0001.01
2022-01-28 13:57:00,,0835.2,4.99,0.00,21.9,21.1,00.0,31.1,23.4,05.0,0000.0,0002.70,0001.25,0001.03
2022-01-28 13:58:00,,0835.1,5.00,0.00,21.8,21.3,00.0,31.0,23.4,05.0,0000.0,0002.66,0001.25,0001.04
2022-01-28 13:59:00,,0835.2,5.02,0.00,22.0,22.1,00.0,31.1,23.7,05.0,0000.0,0002.68,0001.26,0001.07
